Location: Unspecified
(0.0000°N, 0.0000°E)
Time: 02:36:29
(UTC+00:00)

STARLINK-1067 - Pass Details

Date: 18 January 2020
Orbit: 546 x 548 km, 53.1° (Epoch: 18 January)

Event Time Altitude Azimuth Distance (km) Brightness Sun altitude
Rises 05:43:03 0° 200° (SSW) 2,712 7.2 -6.3°
Reaches altitude 10° 05:45:25 10° 191° (S) 1,815 6.4 -5.8°
Maximum altitude 05:49:12 35° 124° (SE) 881 5.5 -4.9°
Drops below altitude 10° 05:52:59 10° 57° (ENE) 1,804 6.8 -4.0°
Sets 05:55:19 0° 48° (NE) 2,693 7.5 -3.5°
